Home > Weather > Ojinaga > Past weeks

Flag for Mexico Weather for the Past 2 Weeks in Ojinaga, Chihuahua, Mexico

Now
74 °F

Sunny.


Feels Like: 76 °F
Forecast: 49 / 86 °F
Wind: 5 mph from North

Location: Marfa Municipal Airport

Current Time: May 3, 2016 at 2:47:57 PM

Latest Report: May 3, 2016 at 1:56 PM


Visibility: 10 mi

Pressure: 30.01 "Hg (27.41 "Hg at 788m altitude)

Humidity: 23%

Dew Point: 34 °F

Location of OjinagaLocation

Historic Weather in Ojinaga — Graph

°F

Ojinaga Temperature Yesterday

Maximum temperature yesterday: 66 °F (at 4:56 PM)
Minimum temperature yesterday: 42 °F (at 4:56 AM)
Average temperature yesterday: 51 °F

High & Low Weather Summary for the Past Weeks

 TemperatureHumidityPressure
High83 °F (Apr 25, 3:56 PM)96% (Apr 22, 5:56 AM)30.25 "Hg (Apr 22, 5:56 AM)
Low34 °F (Apr 30, 5:56 AM)7% (Apr 26, 6:56 PM)29.61 "Hg (Apr 28, 10:56 PM)
Average60 °F41%29.89 "Hg
* Reported Apr 18 12:56 PM — May 3 12:56 PM, Ojinaga, Weather by CustomWeather, © 2016

Note: Actual official high and low records may vary slightly from our data, if they occured in-between our weather recording intervals... More about our weather records

Advertising

Ojinaga Weather History for the Previous 24 Hours

Scroll right to see more
 ConditionsComfort  
Time TempWeatherWind HumidityBarometerVisibility
12:56 PM
Tue, May 3
73 °FSunny.5 mph23%30.03 "Hg10 mi
11:56 AM70 °FSunny.3 mph29%30.06 "Hg10 mi
10:56 AM66 °FSunny.7 mph39%30.08 "Hg10 mi
9:56 AM62 °FSunny.9 mph46%30.10 "Hg10 mi
8:56 AM56 °FSunny.5 mph55%30.11 "Hg10 mi
7:56 AM51 °FSunny.5 mph63%30.11 "Hg10 mi
6:56 AM39 °FClear.No wind76%30.10 "Hg10 mi
5:56 AM36 °FClear.6 mph79%30.08 "Hg10 mi
4:56 AM37 °FClear.8 mph79%N/A10 mi
3:56 AM37 °FClear.No wind76%30.10 "Hg10 mi
2:56 AM38 °FClear.9 mph79%30.09 "Hg10 mi
1:56 AM40 °FClear.No wind70%30.11 "Hg10 mi
12:56 AM41 °FClear.5 mph70%30.13 "Hg10 mi
11:56 PM
Mon, May 2
42 °FClear.7 mph68%30.14 "Hg10 mi
10:56 PM49 °FClear.3 mph57%30.13 "Hg10 mi
9:56 PM48 °FClear.8 mph59%30.13 "Hg10 mi
8:56 PM53 °FClear.10 mph51%30.11 "Hg10 mi
7:56 PM55 °FSunny.10 mph47%30.09 "Hg10 mi
6:56 PM62 °FSunny.13 mph38%30.06 "Hg10 mi
5:56 PM65 °FSunny.10 mph36%30.05 "Hg10 mi
4:56 PM66 °FSunny.8 mph34%30.06 "Hg10 mi
3:56 PM65 °FSunny.6 mph36%30.07 "Hg10 mi
2:56 PM63 °FSunny.6 mph40%30.10 "Hg10 mi
Weather by CustomWeather, © 2016

See weather overviewHow to use our weather pages